Date String (YYYY-MM-DD hh:mm:ss) UTC,Instrument flags,Ambient pressure (hPa),Sample flow (lpm),Bypass flow (lpm),Sample temperature (°C),Ambient temperature (°C),ASC tube jacket temperature (°C),LED temperature (°C),Box temperature (°C),Sample RH (%),Span deviation,Mass concentration (μg/m³),Mass concentration (μg/m³),Mass concentration (μg/m³)
DateTimeUTC,F1_M11,P_M11,Q1_M11,Q2_M11,T1_M11,T2_M11,T3_M11,T4_M11,T5_M11,U1_M11,ZSPAN_M11,X0_M11,X2_M11,X1_M11
2022-07-22 12:00:00,,0827.9,5.01,0.00,29.8,28.5,00.0,38.5,31.7,15.5,0000.0,0015.20,0006.87,0005.72
2022-07-22 12:01:00,,0827.9,4.99,0.00,29.8,28.6,00.0,38.6,31.7,15.5,0000.0,0015.40,0006.87,0005.70
2022-07-22 12:02:00,,0828.0,5.01,0.00,29.8,28.7,00.0,38.6,31.8,15.5,0000.0,0015.35,0006.81,0005.66
2022-07-22 12:03:00,,0827.9,4.99,0.00,29.8,28.7,00.0,38.6,31.8,15.5,0000.0,0014.91,0006.73,0005.64
2022-07-22 12:04:00,,0827.9,5.02,0.00,29.9,28.8,00.0,38.6,31.8,15.4,0000.0,0014.61,0006.67,0005.62
2022-07-22 12:05:00,,0827.9,4.98,0.00,29.9,28.8,00.0,38.6,31.9,15.4,0000.0,0015.07,0006.68,0005.60
2022-07-22 12:06:00,,0827.9,5.01,0.00,29.9,28.9,00.0,38.7,31.9,15.4,0000.0,0014.77,0006.61,0005.57
2022-07-22 12:07:00,,0827.9,5.00,0.00,30.0,28.9,00.0,38.7,31.9,15.4,0000.0,0015.70,0006.51,0005.53
2022-07-22 12:08:00,,0828.0,4.99,0.00,30.0,28.8,00.0,38.7,31.9,15.4,0000.0,0016.07,0006.47,0005.50
2022-07-22 12:09:00,,0828.0,5.02,0.00,30.0,28.0,00.0,38.6,31.8,15.4,0000.0,0015.62,0006.48,0005.48
2022-07-22 12:10:00,,0827.9,4.99,0.00,29.9,27.6,00.0,38.6,31.7,15.4,0000.4,0015.25,0006.46,0005.45
2022-07-22 12:11:00,,0827.9,5.00,0.00,29.9,27.6,00.0,38.6,31.6,15.5,0001.6,0014.01,0006.45,0005.44
2022-07-22 12:12:00,,0828.0,4.99,0.00,29.8,27.7,00.0,38.6,31.5,15.6,0002.1,0013.61,0006.40,0005.42
2022-07-22 12:13:00,,0827.9,5.00,0.00,29.8,27.8,00.0,38.6,31.5,15.6,0002.4,0013.33,0006.34,0005.42
2022-07-22 12:14:00,,0828.0,5.01,0.00,29.8,27.9,00.0,38.6,31.6,15.5,0002.0,0013.13,0006.40,0005.42
2022-07-22 12:15:00,,0828.0,5.01,0.00,29.8,28.0,00.0,38.6,31.6,15.5,0000.0,0013.22,0006.42,0005.41
2022-07-22 12:16:00,,0828.0,5.01,0.00,29.8,28.2,00.0,38.6,31.6,15.5,0000.0,0012.82,0006.38,0005.41
2022-07-22 12:17:00,,0828.0,5.00,0.00,29.8,28.3,00.0,38.6,31.7,15.5,0000.0,0012.63,0006.40,0005.41
2022-07-22 12:18:00,,0828.1,4.98,0.00,29.8,28.4,00.0,38.6,31.7,15.5,0000.0,0011.77,0006.44,0005.41
2022-07-22 12:19:00,,0828.1,5.01,0.00,29.8,28.5,00.0,38.6,31.7,15.5,0000.0,0011.67,0006.38,0005.41
2022-07-22 12:20:00,,0828.1,5.01,0.00,29.8,28.6,00.0,38.6,31.8,15.5,0000.0,0012.01,0006.32,0005.40
2022-07-22 12:21:00,,0828.1,5.01,0.00,29.8,28.7,00.0,38.6,31.8,15.4,0000.0,0011.94,0006.32,0005.40
2022-07-22 12:22:00,,0828.1,4.98,0.00,29.9,28.7,00.0,38.6,31.8,15.3,0000.0,0012.02,0006.34,0005.40
2022-07-22 12:23:00,,0828.1,5.00,0.00,29.9,28.8,00.0,38.6,31.9,15.3,0000.0,0012.16,0006.38,0005.40
2022-07-22 12:24:00,,0828.1,5.00,0.00,29.9,28.8,00.0,38.7,31.9,15.4,0000.0,0012.27,0006.41,0005.40
2022-07-22 12:25:00,,0828.3,5.00,0.00,30.0,28.9,00.0,38.7,31.9,15.8,0000.0,0012.23,0006.44,0005.40
2022-07-22 12:26:00,,0828.1,5.01,0.00,30.0,28.9,00.0,38.7,31.9,15.9,0000.0,0012.30,0006.43,0005.40
2022-07-22 12:27:00,,0828.1,5.00,0.00,30.0,28.6,00.0,38.7,31.9,15.9,0000.0,0013.03,0006.46,0005.40
2022-07-22 12:28:00,,0828.3,4.99,0.00,30.0,27.6,00.0,38.6,31.8,15.9,0000.0,0013.44,0006.51,0005.40
2022-07-22 12:29:00,,0828.1,5.01,0.00,29.9,27.2,00.0,38.5,31.6,15.9,0000.0,0013.35,0006.47,0005.39
2022-07-22 12:30:00,,0828.1,4.99,0.00,29.8,27.1,00.0,38.5,31.5,16.1,0000.0,0013.77,0006.50,0005.41
2022-07-22 12:31:00,,0828.1,5.01,0.00,29.7,27.2,00.0,38.5,31.4,16.2,0000.0,0013.88,0006.58,0005.44
2022-07-22 12:32:00,,0828.1,5.00,0.00,29.7,27.4,00.0,38.5,31.4,16.1,0000.0,0014.80,0006.66,0005.47
2022-07-22 12:33:00,,0828.1,4.99,0.00,29.7,27.5,00.0,38.5,31.4,16.2,0000.0,0015.16,0006.68,0005.50
2022-07-22 12:34:00,,0828.1,5.00,0.00,29.7,27.7,00.0,38.5,31.4,16.2,0000.0,0015.88,0006.68,0005.54
2022-07-22 12:35:00,,0828.1,5.00,0.00,29.6,27.9,00.0,38.5,31.5,16.3,0000.0,0016.56,0006.69,0005.56
2022-07-22 12:36:00,,0828.1,5.01,0.00,29.7,28.0,00.0,38.5,31.5,16.2,0000.0,0017.66,0006.66,0005.59
2022-07-22 12:37:00,,0828.1,5.00,0.00,29.7,28.1,00.0,38.5,31.5,16.2,0000.0,0018.34,0006.67,0005.61
2022-07-22 12:38:00,,0828.1,5.00,0.00,29.7,28.2,00.0,38.5,31.5,16.2,0000.0,0017.98,0006.66,0005.64
2022-07-22 12:39:00,,0828.1,5.01,0.00,29.7,28.3,00.0,38.5,31.6,16.2,0000.0,0018.33,0006.64,0005.66
2022-07-22 12:40:00,,0828.2,4.99,0.00,29.7,28.4,00.0,38.5,31.6,16.1,0000.0,0018.52,0006.67,0005.69
2022-07-22 12:41:00,,0828.2,5.01,0.00,29.7,28.5,00.0,38.5,31.7,16.0,0000.0,0017.80,0006.70,0005.70
2022-07-22 12:42:00,,0828.2,5.00,0.00,29.8,28.6,00.0,38.5,31.7,15.9,0000.0,0017.39,0006.70,0005.70
2022-07-22 12:43:00,,0828.1,5.01,0.00,29.8,28.6,00.0,38.5,31.8,15.8,0000.0,0016.71,0006.62,0005.70
2022-07-22 12:44:00,,0828.2,5.00,0.00,29.8,28.7,00.0,38.5,31.8,15.7,0000.0,0016.40,0006.64,0005.71
2022-07-22 12:45:00,,0828.2,5.01,0.00,29.8,28.8,00.0,38.6,31.8,15.7,0000.0,0015.67,0006.65,0005.70
2022-07-22 12:46:00,,0828.2,5.00,0.00,29.9,28.8,00.0,38.6,31.8,15.6,0000.0,0014.84,0006.65,0005.70
2022-07-22 12:47:00,,0828.2,5.00,0.00,29.9,28.9,00.0,38.6,31.9,15.7,0000.0,0014.12,0006.67,0005.70
2022-07-22 12:48:00,,0828.2,4.99,0.00,29.9,28.9,00.0,38.6,31.9,16.0,0000.0,0014.76,0006.73,0005.70
2022-07-22 12:49:00,,0828.2,5.01,0.00,30.0,29.0,00.0,38.7,31.9,15.7,0000.0,0014.81,0006.77,0005.71
2022-07-22 12:50:00,,0828.2,5.00,0.00,30.0,29.0,00.0,38.7,32.0,15.7,0000.0,0014.05,0006.79,0005.72
2022-07-22 12:51:00,,0828.3,5.01,0.00,30.0,28.7,00.0,38.7,32.0,15.6,0000.0,0014.94,0006.91,0005.72
2022-07-22 12:52:00,,0828.3,4.99,0.00,30.0,27.8,00.0,38.6,31.8,15.6,0000.0,0015.76,0007.03,0005.74
2022-07-22 12:53:00,,0828.3,5.01,0.00,29.9,27.4,00.0,38.5,31.7,15.6,0000.0,0016.36,0007.09,0005.76
2022-07-22 12:54:00,,0828.3,4.99,0.00,29.9,27.4,00.0,38.6,31.6,15.4,0000.0,0017.73,0007.17,0005.76
2022-07-22 12:55:00,,0828.3,5.00,0.00,29.8,27.4,00.0,38.5,31.5,15.2,0000.6,0017.94,0007.19,0005.76
2022-07-22 12:56:00,,0828.3,5.02,0.00,29.8,27.6,00.0,38.5,31.5,15.3,0000.0,0018.40,0007.20,0005.77
2022-07-22 12:57:00,,0828.3,5.00,0.00,29.7,27.7,00.0,38.5,31.5,15.8,0000.0,0018.77,0007.25,0005.78
2022-07-22 12:58:00,,0828.3,5.00,0.00,29.7,27.9,00.0,38.5,31.5,15.6,0000.0,0019.38,0007.31,0005.79
2022-07-22 12:59:00,,0828.3,5.01,0.00,29.7,28.0,00.0,38.5,31.6,15.3,0000.0,0017.85,0007.30,0005.79
